Location: Unspecified
(0.0000°N, 0.0000°E)
Time: 19:29:29
(UTC+02:00)

Iridium 76 - Visible Passes

Search period start: 26 April 2017 00:00
Search period end: 06 May 2017 00:00
Orbit: 776 x 779 km, 86.4° (Epoch: 24 April)

Date Brightness Start Highest point End Pass type
(mag) Time Alt. Az. Time Alt. Az. Time Alt. Az.
26 Apr 6.5 05:45:01 38° ESE 05:46:08 43° E 05:51:02 10° NNE visible
27 Apr 7.8 05:12:42 20° E 05:12:42 20° E 05:16:21 10° NE visible
27 Apr 6.6 06:53:14 23° W 06:53:14 23° W 06:57:09 10° NW visible
28 Apr 5.9 06:20:45 43° NW 06:20:45 43° NW 06:24:41 10° NNW visible
29 Apr 6.6 05:48:09 38° NNE 05:48:09 38° NNE 05:51:23 10° N visible
30 Apr 7.8 05:15:27 20° NE 05:15:27 20° NE 05:17:19 10° NNE visible
01 May 7.4 06:23:11 15° NW 06:23:11 15° NW 06:24:17 10° NNW visible
02 May 7.6 05:50:20 17° N 05:50:20 17° N 05:51:27 10° N visible
03 May 8.1 05:17:26 12° NNE 05:17:26 12° NNE 05:17:51 10° NNE visible
